Tracking 18987 objects as of 26-Feb-2018
HD Live streaming from Space Station
objects crossing your sky now

COSMOS 1529

Track COSMOS 1529 now!
10-day predictions
COSMOS 1529 is classified as:


NORAD ID: 14618
Int'l Code: 1984-001H
Perigee: 1,468.9 km
Apogee: 1,517.8 km
Inclination: 74.0 °
Period: 115.7 minutes
Semi major axis: 7864 km
RCS: 0.6948 m2 (medium)
Launch date: January 5, 1984
Source: Commonwealth of Independent States (former USSR) (CIS)
Launch site: PLESETSK MISSILE AND SPACE COMPLEX (PKMTR)
aabbcc
Your satellite tracking list
Your tracking list is empty




NASA's NSSDC Master Catalog

Two Line Element Set (TLE):
1 14618U 84001H   18056.48640291 -.00000022  00000-0 -47173-4 0  9999
2 14618  74.0088 184.8575 0031066  94.0722 330.7014 12.44823910378276
Source of the keplerian elements: AFSPC